Theta_e
308 309 309 309 309 305 300 297 297 297 297 297 296 296 296 296 296 297 299 300 300 297 298 299 299 300 303 306 307 308 311 312 313 313 312 302 304 300 298 299 300 298 300 297 295
305 303 306 308 308 307 306 300 297 296 296 296 296 296 296 296 296 295 295 295 296 296 297 298 300 300 303 305 305 309 309 311 306 307 308 302 304 300 300 300 299 297 295 294 294
305 304 301 300 304 306 306 304 298 296 296 296 295 296 296 296 299 294 295 295 296 296 296 297 298 300 303 303 303 307 309 304 301 300 303 301 301 300 301 301 301 299 297 294 294
306 306 304 301 299 304 305 304 299 297 296 296 295 295 296 296 302 294 295 295 295 296 296 296 298 301 304 303 300 303 300 301 299 297 299 300 300 298 299 300 298 297 296 294 294
306 306 306 306 303 298 303 302 300 298 296 296 296 296 296 298 295 294 295 295 295 295 296 297 299 302 303 302 299 301 298 297 295 295 296 295 297 299 297 296 295 294 294 294 294
306 305 306 303 299 298 302 301 300 297 296 296 296 296 296 300 294 294 294 294 295 295 295 297 298 299 300 299 300 298 297 296 295 294 293 295 296 293 297 295 294 294 294 293 293
305 305 305 300 301 301 302 301 298 297 296 296 295 295 297 295 294 294 294 294 294 294 295 294 295 298 298 297 296 296 297 296 295 294 295 292 295 295 295 294 294 294 294 293 293
305 304 300 300 301 302 302 300 299 297 296 296 296 296 296 294 294 294 294 294 294 294 294 294 295 295 297 295 296 297 298 300 297 295 294 293 303 297 294 294 294 294 293 293 293
305 304 300 300 301 300 300 299 298 297 297 296 297 297 297 294 294 293 293 293 294 294 293 293 295 296 295 299 299 298 303 302 296 294 295 294 302 297 294 293 294 294 293 293 293
305 304 300 299 299 299 298 298 297 297 296 297 296 299 295 294 293 294 293 293 294 295 296 295 297 300 299 300 309 307 300 299 301 294 293 296 296 296 294 293 294 293 294 294 294
304 304 300 299 299 298 297 297 299 300 295 295 295 295 294 293 294 294 294 293 295 297 300 298 300 304 298 295 296 298 300 301 296 292 292 296 297 299 295 293 293 294 294 294 294
304 303 299 299 298 296 297 296 295 295 298 294 294 294 294 293 295 295 294 296 298 300 298 300 303 294 293 293 294 295 298 300 295 291 292 296 297 298 298 297 294 294 294 294 294
303 301 298 299 297 296 295 295 294 295 300 297 294 294 294 293 295 294 293 294 296 298 297 300 294 292 292 293 294 296 298 298 295 293 294 293 300 298 296 293 295 293 295 294 294
302 301 298 298 297 295 295 294 294 295 306 301 298 296 295 294 297 292 292 293 297 297 295 294 291 292 292 292 291 296 291 291 293 296 303 294 308 303 296 293 292 292 293 293 293
301 301 298 299 296 295 294 294 295 298 317 301 298 295 294 296 295 295 293 294 296 295 295 296 292 292 293 291 291 293 290 291 291 295 294 296 300 306 293 295 293 295 294 294 293
301 300 299 300 298 296 294 294 297 312 314 302 298 297 299 297 296 295 295 293 293 295 294 292 290 292 292 290 290 290 290 291 292 296 301 300 300 309 298 299 295 296 294 292 289
301 300 301 301 296 296 295 297 313 312 303 302 299 298 298 299 298 296 296 296 299 303 302 295 293 290 289 291 290 290 294 306 308 302 308 292 294 305 298 297 297 296 293 290 288
301 299 301 301 298 297 296 304 311 303 302 299 297 298 300 297 298 297 298 300 294 296 301 301 304 292 289 291 293 293 294 302 309 312 304 292 299 305 296 292 291 291 290 288 288
301 298 301 301 299 298 299 310 304 300 296 296 298 300 303 299 296 298 298 299 296 294 302 302 302 288 287 288 288 291 294 289 297 290 297 304 302 299 293 291 291 291 291 290 288
301 298 301 301 300 299 304 300 299 295 294 294 297 299 300 299 297 299 299 297 296 292 291 297 300 292 286 286 285 289 287 297 295 304 308 307 303 305 295 295 294 293 292 290 288
301 300 301 301 300 302 304 298 296 293 292 294 296 296 297 296 296 297 298 298 295 292 291 293 295 295 289 290 295 287 292 289 289 294 304 308 308 305 301 298 297 296 292 290 288
301 304 301 300 302 300 301 296 292 294 292 293 292 294 295 295 295 296 297 297 294 293 294 293 296 298 298 284 284 287 295 294 299 299 294 293 300 298 296 296 294 296 292 289 288
300 300 300 300 301 300 299 296 293 293 294 293 294 293 294 294 294 296 295 293 293 293 294 293 298 299 298 287 285 288 289 291 289 292 298 301 303 292 290 290 290 289 289 289 289
302 304 301 298 295 297 298 299 297 293 292 292 293 293 293 293 294 294 294 293 291 291 291 292 294 297 300 301 298 292 291 288 290 297 298 299 300 299 296 295 295 292 289 291 289
299 298 297 301 301 297 295 295 296 297 294 293 295 293 293 292 295 296 296 294 293 291 291 292 293 294 295 295 295 295 296 292 287 292 297 298 299 298 296 297 295 293 291 289 289
299 298 299 299 296 298 296 299 296 298 297 297 295 296 295 293 294 295 295 294 294 293 291 292 292 292 292 292 293 292 293 293 293 289 291 292 293 293 292 292 291 290 290 289 289
296 297 295 300 298 299 300 298 297 297 297 296 296 296 295 295 291 291 291 291 292 292 291 291 291 292 293 293 292 293 294 294 294 294 291 291 292 293 293 292 291 290 290 289 289
Wind_Speed
24 24 22 20 19 18 18 18 18 16 14 10 9 10 11 11 9 7 4 9 10 9 6 2 2 4 6 4 3 3 6 11 17 15 4 12 9 8 4 11 6 3 5 10 7
24 24 23 21 20 18 17 16 16 16 14 12 10 8 8 9 3 5 9 8 8 8 3 1 5 5 4 5 4 8 11 14 6 7 4 12 12 12 9 12 7 11 9 7 5
25 25 25 22 21 20 18 16 15 14 13 12 10 10 9 6 4 3 11 8 7 7 4 2 5 7 8 5 5 5 7 4 5 5 6 11 10 9 8 10 11 17 12 8 5
27 28 26 24 22 20 18 16 14 13 13 12 11 10 8 3 2 8 9 9 8 8 4 1 4 5 7 7 4 5 0 1 5 4 6 9 9 7 10 5 11 12 12 8 6
29 29 28 27 24 20 17 15 14 13 12 11 11 9 5 3 2 9 9 9 9 8 4 2 6 7 8 3 6 6 5 5 5 6 5 5 7 3 10 11 11 12 10 8 6
31 30 30 28 24 18 16 13 12 11 10 10 9 5 3 4 5 11 9 9 9 9 9 5 1 2 5 2 4 3 8 9 6 4 3 4 6 2 12 15 14 12 11 9 8
31 30 29 27 22 17 14 13 11 10 9 7 4 4 5 2 5 10 10 7 7 6 5 6 2 0 5 5 6 12 7 6 7 5 2 0 7 9 10 15 14 12 10 9 7
32 30 28 25 20 16 14 12 11 7 5 4 4 5 2 4 5 10 8 4 7 5 4 3 7 6 3 11 6 5 4 6 9 7 5 3 4 11 13 17 15 12 9 8 7
32 29 25 23 17 16 15 12 8 8 5 5 6 2 2 6 6 10 10 5 6 4 3 2 2 4 6 5 4 7 6 12 6 6 3 9 2 7 12 14 14 11 11 9 9
32 27 23 22 17 17 15 8 7 15 5 5 6 2 6 7 9 12 11 6 3 5 3 2 3 4 4 6 4 4 7 3 7 6 7 10 15 6 14 15 16 13 11 13 9
32 24 22 23 15 15 14 4 4 1 16 7 5 3 5 13 5 10 13 6 3 3 2 0 6 4 3 2 2 1 1 3 2 3 3 14 16 13 18 20 20 20 21 14 10
30 21 21 22 13 15 12 4 4 4 4 6 4 3 7 11 5 11 12 3 3 3 5 4 2 4 4 1 1 1 3 5 2 1 3 10 17 16 16 21 24 20 16 16 10
28 21 21 22 9 17 15 8 4 3 3 0 3 3 4 6 3 10 13 6 5 3 5 3 5 3 2 0 2 1 3 3 4 5 11 10 11 9 6 7 9 16 16 12 10
31 20 20 19 9 16 10 7 3 3 4 3 1 2 4 4 1 7 10 4 1 5 3 4 2 0 1 1 3 7 3 0 4 4 4 1 6 5 6 7 10 17 17 13 10
31 18 18 19 10 10 10 5 1 2 3 3 2 4 5 4 6 1 8 3 5 5 4 4 1 1 2 3 4 3 1 2 1 3 4 7 5 3 6 7 11 12 15 10 9
29 15 15 19 14 15 10 3 1 3 1 2 2 4 7 1 2 5 2 3 1 2 5 4 2 3 2 2 3 2 3 4 2 2 4 6 4 5 5 4 13 12 11 10 9
27 11 14 18 13 14 8 2 3 2 3 6 4 7 9 4 2 4 4 5 4 4 0 4 1 2 2 3 3 2 3 3 4 4 3 2 4 8 2 2 12 11 12 9 8
27 7 12 19 16 13 5 4 3 2 5 4 4 12 4 6 1 4 3 2 2 2 4 4 2 0 4 3 2 1 2 3 5 3 3 3 6 1 3 6 8 11 9 7 7
22 4 13 23 14 11 1 3 4 4 4 9 12 5 1 2 3 6 1 1 1 2 3 5 1 3 4 1 3 4 3 2 5 2 4 3 5 6 7 5 7 8 7 6 7
15 4 15 19 11 6 2 2 2 3 4 3 4 2 7 8 7 9 3 3 3 1 1 1 6 1 3 1 4 2 2 2 3 4 5 5 4 5 8 12 10 9 11 7 9
7 1 14 16 7 3 3 3 2 0 1 3 5 7 6 6 7 7 3 3 2 4 1 3 2 4 2 6 3 4 3 1 2 3 4 4 1 1 5 11 12 9 12 9 10
6 2 15 12 3 4 3 4 3 3 2 3 4 5 5 6 8 6 5 2 4 6 2 2 3 5 2 3 2 3 2 6 4 4 1 3 7 3 4 5 4 8 11 8 12
8 5 11 9 4 5 4 2 3 2 3 2 4 4 1 5 5 7 6 3 6 5 2 4 3 6 4 2 2 5 6 6 0 2 8 6 4 1 1 3 8 8 9 11 14
6 3 6 10 5 4 5 2 4 3 4 4 5 5 6 7 9 8 6 0 4 7 3 3 8 13 11 12 1 5 9 12 10 6 9 12 15 9 3 4 5 10 12 12 17
11 5 5 5 4 7 2 2 6 6 3 4 4 7 7 6 12 16 9 9 7 7 7 6 9 15 18 20 20 21 19 14 16 19 13 13 14 13 7 9 19 27 21 15 12
7 7 6 7 8 11 1 1 5 6 5 7 7 11 12 13 13 20 19 16 12 1 5 9 8 9 14 17 21 24 22 23 21 19 19 23 27 21 23 12 11 9 8 10 12
13 11 3 5 4 5 5 7 9 18 10 9 15 16 18 16 13 18 22 25 18 15 10 10 5 8 14 10 12 17 18 21 17 18 14 14 14 12 11 7 11 12 10 15 17
Wind_Direction
357 353 350 347 346 346 345 341 337 338 336 338 333 331 331 339 347 9 347 326 329 339 328 326 187 202 170 191 176 200 238 240 229 234 173 146 164 154 142 130 147 115 110 128 164
360 356 350 345 342 339 338 337 334 332 333 335 335 334 334 332 336 9 336 345 347 348 346 277 224 201 198 194 191 217 228 241 25 60 145 170 189 160 165 154 149 137 129 131 125
359 355 352 348 344 337 334 332 330 329 329 328 331 335 336 333 275 319 337 344 350 350 335 222 201 205 209 197 187 191 249 94 61 75 131 160 181 173 191 195 186 180 165 155 141
359 354 351 347 344 338 332 328 325 325 324 323 325 332 340 20 299 327 342 353 356 356 349 255 211 203 217 195 195 218 352 33 128 104 136 170 157 193 202 94 143 149 160 159 160
356 350 348 341 336 332 331 328 326 324 322 318 322 327 352 228 356 348 355 5 9 10 6 230 223 231 217 181 182 220 138 111 123 134 139 153 191 218 206 160 150 154 158 167 169
352 349 347 344 340 333 331 329 326 326 324 320 325 341 331 254 321 359 357 8 4 25 31 55 104 153 128 127 249 127 148 135 150 136 118 224 185 205 199 174 173 175 177 178 179
353 351 348 345 343 340 336 334 334 326 323 334 5 71 49 79 338 355 355 360 13 24 28 36 104 300 138 127 115 136 134 161 179 163 151 310 230 226 165 181 186 187 189 188 194
356 353 351 352 350 347 345 342 343 352 2 23 38 72 75 13 359 352 353 333 343 1 18 64 81 100 103 123 126 200 199 202 148 176 145 211 233 171 172 179 188 194 196 199 205
357 354 356 353 359 355 352 352 24 28 30 56 39 119 64 348 353 346 349 332 327 325 340 48 86 117 138 188 183 198 259 214 157 201 158 210 241 153 183 194 194 201 208 201 204
356 353 355 356 1 1 2 12 57 32 47 46 39 140 31 333 325 349 337 338 322 319 276 248 209 200 207 206 237 251 229 241 236 153 221 223 246 186 199 205 209 209 208 212 204
353 354 354 354 355 8 9 9 334 125 49 59 11 13 342 338 337 350 349 346 302 270 271 26 248 240 72 1 96 344 204 260 81 97 279 240 251 246 198 214 217 224 226 215 208
354 356 353 351 354 10 22 70 81 143 82 46 33 6 346 355 329 351 7 321 318 309 315 219 280 76 94 93 83 335 307 272 118 87 298 292 279 261 231 221 215 216 219 205 199
355 353 355 350 342 8 27 55 88 125 270 19 349 344 340 3 356 343 7 340 343 355 1 351 75 114 310 309 310 173 282 279 290 307 249 290 263 214 205 253 218 202 209 202 205
354 349 355 357 358 357 10 21 65 121 246 73 40 326 344 318 257 351 5 6 292 350 8 57 110 287 347 75 328 271 68 47 310 326 282 334 292 199 169 194 205 198 197 199 209
352 346 357 6 353 357 343 354 54 62 272 38 73 320 331 345 323 1 6 334 359 8 282 79 173 293 259 26 334 33 331 317 284 262 315 181 241 217 163 198 181 182 183 192 204
349 343 353 1 353 349 347 350 107 234 329 33 344 344 340 239 356 324 354 36 5 280 55 69 72 34 59 77 45 97 263 238 236 240 242 139 237 243 177 197 162 172 172 189 211
346 337 353 0 345 347 352 71 266 340 54 355 345 340 333 302 316 357 358 19 4 321 290 149 109 91 5 216 155 235 263 238 208 195 272 105 212 287 140 114 155 158 168 193 230
344 325 357 356 351 352 359 238 314 25 2 6 312 312 265 0 151 319 295 326 105 306 297 326 234 152 2 356 1 125 315 306 298 311 24 160 232 216 99 127 122 150 175 216 252
346 337 357 353 351 354 335 10 358 6 346 330 309 292 267 169 290 323 256 290 57 360 345 324 194 126 43 16 324 131 200 12 296 171 255 239 246 192 168 199 202 200 212 232 254
350 346 356 351 359 10 329 64 348 3 329 289 300 344 313 334 317 344 314 140 160 166 322 88 284 189 123 171 65 325 61 197 201 270 251 203 274 255 180 192 190 197 204 240 261
3 309 350 352 15 14 63 20 325 13 317 278 304 290 288 314 313 308 277 195 202 165 245 193 249 133 169 196 194 145 192 207 314 260 284 299 230 318 189 181 184 186 196 219 269
2 294 355 1 12 23 21 334 330 298 230 264 280 273 282 317 296 280 265 261 191 177 241 162 292 273 286 83 33 346 278 184 241 164 225 290 271 51 18 39 61 163 192 243 299
346 327 10 36 30 10 338 295 266 280 288 273 270 244 287 282 291 265 288 77 180 208 240 170 219 294 195 141 167 228 190 212 67 298 227 263 254 114 96 239 236 243 249 282 301
359 347 17 47 55 344 340 314 315 247 268 261 285 290 275 255 246 276 276 123 203 236 223 201 248 237 264 303 78 213 202 205 200 230 262 231 265 263 259 274 262 241 261 289 291
17 36 8 340 13 334 298 300 307 335 259 274 259 248 289 285 300 272 297 307 245 239 220 231 256 255 265 275 280 273 261 213 209 225 249 272 273 270 268 291 295 289 283 282 274
34 357 327 291 305 316 163 293 318 330 304 293 255 302 303 280 275 293 299 294 281 179 228 232 265 298 279 270 263 267 267 257 230 229 249 259 275 285 294 299 288 302 281 271 272
18 348 322 291 310 311 353 344 323 323 288 269 295 307 301 304 311 289 280 273 264 274 248 241 257 282 279 276 306 281 258 249 241 233 224 243 251 275 304 291 301 309 289 277 281